Terug naar catalogus

CZ-6A DEB

ActiefSSO
NORAD 60213·DEBRIS·🇨🇳 China

Gelanceerd Jul 4, 2024 vanaf Taiyuan Satellite Launch Center

Loading…

Volgende Passages (komende 24 uur)

TLE

VersSource: Space-Track

Epoch: Sep 14, 2026, 01:08 UTC

1 60213U 24126C   26257.04756108  .00009964  00000-0  56959-3 0  9995
2 60213  97.8156 280.2856 0004058   0.8008 359.3228 15.12892555120170

Volg CZ-6A DEB in realtime met AllMySat

Download on the App Store